Location: Ostrava
(49.8330°N, 18.2830°E)
Time: 11:32:10
(UTC+02:00)

Transit 2A - All Passes

Search period start: 24 October 2014 00:00
Search period end: 02 November 2014 23:00
Orbit: 598 x 964 km, 66.7° (Epoch: 22 October)

Date Brightness Start Highest point End Pass type
(mag) Time Alt. Az. Time Alt. Az. Time Alt. Az.
24 Oct - 03:38:16 10° S 03:42:20 39° ESE 03:46:42 10° NE visible
24 Oct - 05:21:25 10° WSW 05:25:34 36° NW 05:30:04 10° NNE visible
24 Oct - 07:07:51 10° NW 07:10:18 14° NNW 07:12:52 10° NNE daylight
24 Oct - 08:53:35 10° NNW 08:55:48 13° N 08:58:05 10° NE daylight
24 Oct - 10:36:22 10° NNW 10:40:48 27° NE 10:45:36 10° E daylight
24 Oct - 12:19:12 10° NW 12:24:37 83° SW 12:30:34 10° SSE daylight
24 Oct - 14:03:45 10° WNW 14:07:15 17° WSW 14:10:54 10° SW daylight
25 Oct - 03:05:15 10° S 03:08:57 27° ESE 03:12:52 10° NE visible
25 Oct - 04:47:34 10° WSW 04:51:53 48° NW 04:56:34 10° NNE visible
25 Oct - 06:33:31 10° WNW 06:36:22 16° NNW 06:39:22 10° NNE visible
25 Oct - 08:19:54 10° NNW 08:21:49 12° N 08:23:47 10° NNE daylight
25 Oct - 10:02:55 10° NNW 10:07:00 23° NNE 10:11:23 10° E daylight
25 Oct - 11:45:39 10° NW 11:51:02 76° NE 11:56:58 10° SE daylight
25 Oct - 13:29:36 10° WNW 13:33:54 23° WSW 13:38:28 10° SSW daylight
26 Oct - 02:32:32 10° SSE 02:35:37 19° ESE 02:38:51 10° ENE visible
26 Oct - 03:13:50 10° SW 03:18:14 65° NW 03:23:03 10° NNE visible
26 Oct - 04:59:14 10° WNW 05:02:28 18° NNW 05:05:54 10° NNE visible
26 Oct - 06:46:02 10° NNW 06:47:49 12° N 06:49:39 10° NNE daylight
26 Oct - 08:29:27 10° NNW 08:33:09 19° NNE 08:37:05 10° ENE daylight
26 Oct - 10:12:08 10° NNW 10:17:25 58° NE 10:23:15 10° SE daylight
26 Oct - 11:55:40 10° NW 12:00:30 32° WSW 12:05:41 10° S daylight
27 Oct - 01:00:20 10° SE 01:02:20 13° ESE 01:04:24 10° ENE visible
27 Oct - 02:40:14 10° SW 02:44:40 90° NW 02:49:29 10° NE visible
27 Oct - 04:25:02 10° W 04:28:36 22° NNW 04:32:26 10° NNE visible
27 Oct - 06:11:58 10° NNW 06:13:49 12° N 06:15:43 10° NNE daylight
27 Oct - 07:55:58 10° NNW 07:59:15 17° NNE 08:02:43 10° ENE daylight
27 Oct - 09:38:38 10° NNW 09:43:46 45° NE 09:49:23 10° ESE daylight
27 Oct - 11:21:54 10° NW 11:27:03 42° WSW 11:32:39 10° S daylight
28 Oct - 02:06:46 10° SSW 02:11:08 64° ESE 02:15:53 10° NE visible
28 Oct - 03:50:55 10° W 03:54:47 26° NW 03:58:58 10° NNE visible
28 Oct - 05:37:44 10° NW 05:39:49 12° N 05:41:59 10° NNE visible
28 Oct - 07:22:27 10° NNW 07:25:19 15° NNE 07:28:19 10° NE daylight
28 Oct - 09:05:09 10° NNW 09:10:04 36° NE 09:15:25 10° ESE daylight
28 Oct - 10:48:12 10° NW 10:53:34 57° WSW 10:59:26 10° SSE daylight
28 Oct - 12:34:52 10° W 12:35:53 10° WSW 12:36:54 10° WSW daylight
29 Oct - 01:33:29 10° S 01:37:40 44° ESE 01:42:12 10° NE visible
29 Oct - 03:16:54 10° WSW 03:21:01 33° NW 03:25:29 10° NNE visible
29 Oct - 05:03:26 10° NW 05:05:51 14° NNW 05:08:22 10° NNE visible
29 Oct - 06:48:53 10° NNW 06:51:22 13° NNE 06:53:56 10° NE daylight
29 Oct - 08:31:41 10° NNW 08:36:19 29° NE 08:41:19 10° E daylight
29 Oct - 10:14:35 10° NW 10:20:03 76° WSW 10:26:02 10° SSE daylight
29 Oct - 11:59:26 10° WNW 12:02:36 15° WSW 12:05:52 10° SW daylight
30 Oct - 01:00:22 10° S 01:04:16 31° ESE 01:08:25 10° NE visible
30 Oct - 02:43:00 10° WSW 02:47:18 43° NW 02:52:00 10° NNE visible
30 Oct - 04:29:06 10° NW 04:31:54 15° NNW 04:34:50 10° NNE visible
30 Oct - 06:15:14 10° NNW 06:17:22 12° N 06:19:36 10° NNE daylight
30 Oct - 07:58:13 10° NNW 08:02:31 24° NNE 08:07:08 10° E daylight
30 Oct - 09:41:01 10° NW 09:46:29 83° NE 09:52:30 10° SE daylight
30 Oct - 11:25:08 10° WNW 11:29:15 21° WSW 11:33:36 10° SSW daylight
31 Oct - 00:27:31 10° SSE 00:30:54 22° ESE 00:34:29 10° ENE night (unlit)
31 Oct - 02:09:13 10° SW 02:13:38 58° NW 02:18:29 10° NNE visible
31 Oct - 03:54:48 10° WNW 03:57:59 17° NNW 04:01:20 10° NNE visible
31 Oct - 05:41:25 10° NNW 05:43:22 12° N 05:45:23 10° NNE visible
31 Oct - 07:24:45 10° NNW 07:28:40 21° NNE 07:32:52 10° ENE daylight
31 Oct - 09:07:28 10° NNW 09:12:53 64° NE 09:18:49 10° SE daylight
31 Oct - 10:51:09 10° NW 10:55:52 29° WSW 11:00:55 10° S daylight
31 Oct - 23:55:03 10° SE 23:57:36 15° ESE 00:00:15 10° ENE night (unlit)
01 Nov - 01:35:34 10° SW 01:40:02 80° NW 01:44:55 10° NE visible
01 Nov - 03:20:35 10° WNW 03:24:06 21° NNW 03:27:51 10° NNE visible
01 Nov - 05:07:25 10° NNW 05:09:22 12° N 05:11:23 10° NNE visible
01 Nov - 06:51:16 10° NNW 06:54:47 18° NNE 06:58:31 10° ENE daylight
01 Nov - 08:33:58 10° NNW 08:39:14 50° NE 08:45:00 10° ESE daylight
01 Nov - 10:17:19 10° NW 10:22:27 38° WSW 10:27:58 10° S daylight
02 Nov - 01:02:03 10° SSW 01:06:29 73° ESE 01:11:20 10° NE visible
02 Nov - 02:46:26 10° W 02:50:15 25° NNW 02:54:23 10° NNE visible
02 Nov - 04:33:15 10° NNW 04:35:22 13° N 04:37:33 10° NNE visible
02 Nov - 06:17:45 10° NNW 06:20:52 16° NNE 06:24:08 10° NE daylight
02 Nov - 08:00:28 10° NNW 08:05:32 39° NE 08:11:03 10° ESE daylight
02 Nov - 09:43:36 10° NW 09:48:58 51° WSW 09:54:48 10° SSE daylight
